Time,TemperatureF,DewpointF,PressureIn,WindDirection,WindDirectionDegrees,WindSpeedMPH,WindSpeedGustMPH,Humidity,HourlyPrecipIn,Conditions,Clouds,dailyrainin,SoftwareType,DateUTC
2013-01-21 00:00:00,41.2,29.0,30.27,South,184,0.0,-999.0,62,-99.99,,,0.00,weatherlink.com 1.10,2013-01-21 07:00:00,
2013-01-21 00:15:00,41.3,29.0,30.27,South,184,0.0,-999.0,61,-99.99,,,0.00,weatherlink.com 1.10,2013-01-21 07:15:00,
2013-01-21 00:30:00,41.5,28.0,30.26,South,184,0.0,-999.0,59,-99.99,,,0.00,weatherlink.com 1.10,2013-01-21 07:30:00,
2013-01-21 00:45:00,41.5,28.0,30.26,South,184,0.0,-999.0,59,-99.99,,,0.00,weatherlink.com 1.10,2013-01-21 07:45:00,
2013-01-21 01:00:00,40.7,28.0,30.25,South,184,0.0,-999.0,60,-99.99,,,0.00,weatherlink.com 1.10,2013-01-21 08:00:00,
2013-01-21 01:15:00,40.5,28.0,30.25,South,184,0.0,-999.0,61,-99.99,,,0.00,weatherlink.com 1.10,2013-01-21 08:15:00,
2013-01-21 01:30:00,40.3,27.0,30.25,South,184,0.0,-999.0,60,-99.99,,,0.00,weatherlink.com 1.10,2013-01-21 08:30:00,
2013-01-21 01:45:00,40.4,27.0,30.25,South,184,0.0,-999.0,60,-99.99,,,0.00,weatherlink.com 1.10,2013-01-21 08:45:00,
2013-01-21 02:00:00,39.7,27.0,30.25,South,184,0.0,-999.0,62,-99.99,,,0.00,weatherlink.com 1.10,2013-01-21 09:00:00,
2013-01-21 02:15:00,40.1,28.0,30.25,South,184,0.0,-999.0,62,-99.99,,,0.00,weatherlink.com 1.10,2013-01-21 09:15:00,
2013-01-21 02:30:00,40.8,27.0,30.25,South,184,0.0,-999.0,59,-99.99,,,0.00,weatherlink.com 1.10,2013-01-21 09:30:00,
2013-01-21 02:45:00,41.1,27.0,30.25,South,184,0.0,-999.0,58,-99.99,,,0.00,weatherlink.com 1.10,2013-01-21 09:45:00,
2013-01-21 03:03:00,41.2,28.0,30.25,South,184,0.0,-999.0,59,-99.99,,,0.00,weatherlink.com 1.10,2013-01-21 10:03:00,
2013-01-21 03:15:00,41.3,28.0,30.25,South,184,1.0,-999.0,59,-99.99,,,0.00,weatherlink.com 1.10,2013-01-21 10:15:00,
2013-01-21 03:30:00,41.1,28.0,30.24,South,184,0.0,-999.0,61,-99.99,,,0.00,weatherlink.com 1.10,2013-01-21 10:30:00,
2013-01-21 03:45:00,41.3,28.0,30.24,South,184,0.0,-999.0,60,-99.99,,,0.00,weatherlink.com 1.10,2013-01-21 10:45:00,
2013-01-21 04:00:00,41.6,28.0,30.23,South,184,0.0,-999.0,59,-99.99,,,0.00,weatherlink.com 1.10,2013-01-21 11:00:00,
2013-01-21 04:18:00,41.5,28.0,30.23,South,184,0.0,-999.0,59,-99.99,,,0.00,weatherlink.com 1.10,2013-01-21 11:18:00,
2013-01-21 04:30:00,40.6,29.0,30.23,South,184,0.0,-999.0,63,-99.99,,,0.00,weatherlink.com 1.10,2013-01-21 11:30:00,
2013-01-21 04:45:00,40.4,29.0,30.23,South,184,0.0,-999.0,63,-99.99,,,0.00,weatherlink.com 1.10,2013-01-21 11:45:00,
2013-01-21 05:00:00,40.0,29.0,30.24,South,184,0.0,-999.0,64,-99.99,,,0.00,weatherlink.com 1.10,2013-01-21 12:00:00,
2013-01-21 05:15:00,39.7,29.0,30.24,South,184,0.0,-999.0,65,-99.99,,,0.00,weatherlink.com 1.10,2013-01-21 12:15:00,
2013-01-21 05:30:00,40.1,29.0,30.23,South,184,0.0,-999.0,66,-99.99,,,0.00,weatherlink.com 1.10,2013-01-21 12:30:00,
2013-01-21 05:45:00,40.1,29.0,30.24,South,184,1.0,-999.0,64,-99.99,,,0.00,weatherlink.com 1.10,2013-01-21 12:45:00,
2013-01-21 06:00:00,40.5,29.0,30.24,South,184,2.0,-999.0,63,-99.99,,,0.00,weatherlink.com 1.10,2013-01-21 13:00:00,
2013-01-21 06:15:00,40.5,29.0,30.24,South,184,1.0,-999.0,63,-99.99,,,0.00,weatherlink.com 1.10,2013-01-21 13:15:00,
2013-01-21 06:30:00,40.2,28.0,30.24,South,184,0.0,-999.0,63,-99.99,,,0.00,weatherlink.com 1.10,2013-01-21 13:30:00,
2013-01-21 06:45:00,39.5,28.0,30.25,SSW,202,0.0,-999.0,63,-99.99,,,0.00,weatherlink.com 1.10,2013-01-21 13:45:00,
2013-01-21 07:00:00,39.7,28.0,30.25,SSW,202,0.0,-999.0,63,-99.99,,,0.00,weatherlink.com 1.10,2013-01-21 14:00:00,
2013-01-21 07:15:00,39.7,28.0,30.25,SSW,202,2.0,-999.0,63,-99.99,,,0.00,weatherlink.com 1.10,2013-01-21 14:15:00,
2013-01-21 07:30:00,40.6,28.0,30.26,SSW,202,0.0,-999.0,60,-99.99,,,0.00,weatherlink.com 1.10,2013-01-21 14:30:00,
2013-01-21 07:45:00,40.9,28.0,30.27,SSW,202,0.0,-999.0,61,-99.99,,,0.00,weatherlink.com 1.10,2013-01-21 14:45:00,
2013-01-21 08:00:00,42.0,29.0,30.27,SSW,202,1.0,-999.0,60,-99.99,,,0.00,weatherlink.com 1.10,2013-01-21 15:00:00,
2013-01-21 08:15:00,43.0,29.0,30.27,SSW,202,0.0,-999.0,58,-99.99,,,0.00,weatherlink.com 1.10,2013-01-21 15:15:00,
2013-01-21 08:31:00,46.3,31.0,30.26,SSW,202,0.0,-999.0,56,-99.99,,,0.00,weatherlink.com 1.10,2013-01-21 15:31:00,
2013-01-21 08:46:00,49.1,32.0,30.27,SSW,202,0.0,-999.0,53,-99.99,,,0.00,weatherlink.com 1.10,2013-01-21 15:46:00,
2013-01-21 09:01:00,52.1,33.0,30.27,SSW,202,0.0,-999.0,49,-99.99,,,0.00,weatherlink.com 1.10,2013-01-21 16:01:00,
2013-01-21 09:16:00,53.9,30.0,30.27,SSW,202,0.0,-999.0,41,-99.99,,,0.00,weatherlink.com 1.10,2013-01-21 16:16:00,
2013-01-21 09:31:00,56.6,30.0,30.28,SSW,202,0.0,-999.0,36,-99.99,,,0.00,weatherlink.com 1.10,2013-01-21 16:31:00,
2013-01-21 09:46:00,58.6,30.0,30.29,SE,144,4.0,-999.0,34,-99.99,,,0.00,weatherlink.com 1.10,2013-01-21 16:46:00,
2013-01-21 10:01:00,58.9,30.0,30.29,SE,137,1.0,-999.0,33,-99.99,,,0.00,weatherlink.com 1.10,2013-01-21 17:01:00,
2013-01-21 10:16:00,58.6,29.0,30.29,SE,134,2.0,-999.0,33,-99.99,,,0.00,weatherlink.com 1.10,2013-01-21 17:16:00,
2013-01-21 10:30:00,58.6,29.0,30.30,SE,139,2.0,-999.0,33,-99.99,,,0.00,weatherlink.com 1.10,2013-01-21 17:30:00,
2013-01-21 10:45:00,59.2,29.0,30.30,SE,136,4.0,-999.0,32,-99.99,,,0.00,weatherlink.com 1.10,2013-01-21 17:45:00,
2013-01-21 11:00:00,59.5,29.0,30.30,SE,128,4.0,-999.0,31,-99.99,,,0.00,weatherlink.com 1.10,2013-01-21 18:00:00,
2013-01-21 11:16:00,59.8,29.0,30.30,SE,129,2.0,-999.0,31,-99.99,,,0.00,weatherlink.com 1.10,2013-01-21 18:16:00,
2013-01-21 11:31:00,60.6,30.0,30.29,SE,126,1.0,-999.0,31,-99.99,,,0.00,weatherlink.com 1.10,2013-01-21 18:31:00,
2013-01-21 11:46:00,60.0,29.0,30.29,East,82,0.0,-999.0,31,-99.99,,,0.00,weatherlink.com 1.10,2013-01-21 18:46:00,
2013-01-21 12:01:00,60.2,29.0,30.29,SE,132,2.0,-999.0,31,-99.99,,,0.00,weatherlink.com 1.10,2013-01-21 19:01:00,
2013-01-21 12:16:00,59.9,29.0,30.28,ESE,119,1.0,-999.0,31,-99.99,,,0.00,weatherlink.com 1.10,2013-01-21 19:16:00,
2013-01-21 12:31:00,60.5,30.0,30.27,SE,137,2.0,-999.0,31,-99.99,,,0.00,weatherlink.com 1.10,2013-01-21 19:31:00,
2013-01-21 12:46:00,60.5,30.0,30.26,SE,134,1.0,-999.0,31,-99.99,,,0.00,weatherlink.com 1.10,2013-01-21 19:46:00,
2013-01-21 13:01:00,60.6,30.0,30.26,SSE,150,1.0,-999.0,31,-99.99,,,0.00,weatherlink.com 1.10,2013-01-21 20:01:00,
2013-01-21 13:16:00,60.4,29.0,30.25,SSE,153,2.0,-999.0,30,-99.99,,,0.00,weatherlink.com 1.10,2013-01-21 20:16:00,
2013-01-21 13:31:00,59.9,30.0,30.24,SE,142,1.0,-999.0,32,-99.99,,,0.00,weatherlink.com 1.10,2013-01-21 20:31:00,
2013-01-21 13:46:00,60.5,30.0,30.24,SE,137,0.0,-999.0,31,-99.99,,,0.00,weatherlink.com 1.10,2013-01-21 20:46:00,
2013-01-21 14:01:00,59.4,29.0,30.23,SE,140,4.0,-999.0,31,-99.99,,,0.00,weatherlink.com 1.10,2013-01-21 21:01:00,
2013-01-21 14:16:00,59.3,29.0,30.23,SE,140,0.0,-999.0,32,-99.99,,,0.00,weatherlink.com 1.10,2013-01-21 21:16:00,
2013-01-21 14:30:00,59.7,30.0,30.23,SE,142,0.0,-999.0,32,-99.99,,,0.00,weatherlink.com 1.10,2013-01-21 21:30:00,
2013-01-21 15:00:00,60.7,31.0,30.23,SE,145,1.0,-999.0,33,-99.99,,,0.00,weatherlink.com 1.10,2013-01-21 22:00:00,
2013-01-21 15:16:00,61.0,32.0,30.23,SE,146,2.0,-999.0,33,-99.99,,,0.00,weatherlink.com 1.10,2013-01-21 22:16:00,
2013-01-21 15:31:00,60.2,31.0,30.23,SE,138,0.0,-999.0,33,-99.99,,,0.00,weatherlink.com 1.10,2013-01-21 22:31:00,
2013-01-21 15:46:00,60.0,30.0,30.23,SE,138,0.0,-999.0,32,-99.99,,,0.00,weatherlink.com 1.10,2013-01-21 22:46:00,
2013-01-21 16:01:00,60.0,31.0,30.22,SE,138,0.0,-999.0,34,-99.99,,,0.00,weatherlink.com 1.10,2013-01-21 23:01:00,
2013-01-21 16:16:00,59.5,32.0,30.22,SE,138,0.0,-999.0,35,-99.99,,,0.00,weatherlink.com 1.10,2013-01-21 23:16:00,
2013-01-21 16:31:00,56.2,31.0,30.22,SE,138,0.0,-999.0,38,-99.99,,,0.00,weatherlink.com 1.10,2013-01-21 23:31:00,
2013-01-21 16:46:00,54.8,31.0,30.22,SE,138,0.0,-999.0,40,-99.99,,,0.00,weatherlink.com 1.10,2013-01-21 23:46:00,
2013-01-21 17:01:00,53.3,31.0,30.22,SE,138,0.0,-999.0,42,-99.99,,,0.00,weatherlink.com 1.10,2013-01-22 00:01:00,
2013-01-21 17:16:00,53.0,31.0,30.22,SW,229,1.0,-999.0,43,-99.99,,,0.00,weatherlink.com 1.10,2013-01-22 00:16:00,
2013-01-21 17:31:00,52.2,31.0,30.23,SW,229,0.0,-999.0,44,-99.99,,,0.00,weatherlink.com 1.10,2013-01-22 00:31:00,
2013-01-21 18:01:00,49.4,30.0,30.23,SW,229,0.0,-999.0,48,-99.99,,,0.00,weatherlink.com 1.10,2013-01-22 01:01:00,
2013-01-21 18:16:00,48.4,30.0,30.24,SW,229,0.0,-999.0,50,-99.99,,,0.00,weatherlink.com 1.10,2013-01-22 01:16:00,
2013-01-21 18:31:00,47.4,30.0,30.24,SW,229,0.0,-999.0,51,-99.99,,,0.00,weatherlink.com 1.10,2013-01-22 01:31:00,
2013-01-21 18:46:00,46.3,30.0,30.25,SW,229,0.0,-999.0,53,-99.99,,,0.00,weatherlink.com 1.10,2013-01-22 01:46:00,
2013-01-21 19:01:00,46.5,30.0,30.25,SW,229,0.0,-999.0,53,-99.99,,,0.00,weatherlink.com 1.10,2013-01-22 02:01:00,
2013-01-21 19:16:00,46.4,30.0,30.26,SW,229,0.0,-999.0,53,-99.99,,,0.00,weatherlink.com 1.10,2013-01-22 02:16:00,
2013-01-21 19:31:00,45.7,30.0,30.27,SW,229,0.0,-999.0,54,-99.99,,,0.00,weatherlink.com 1.10,2013-01-22 02:31:00,
2013-01-21 19:46:00,45.3,30.0,30.27,SW,229,0.0,-999.0,55,-99.99,,,0.00,weatherlink.com 1.10,2013-01-22 02:46:00,
2013-01-21 20:01:00,45.1,30.0,30.28,SW,229,0.0,-999.0,56,-99.99,,,0.00,weatherlink.com 1.10,2013-01-22 03:01:00,
2013-01-21 20:16:00,45.2,30.0,30.28,SW,229,0.0,-999.0,55,-99.99,,,0.00,weatherlink.com 1.10,2013-01-22 03:16:00,
2013-01-21 20:31:00,43.8,29.0,30.28,SW,229,1.0,-999.0,57,-99.99,,,0.00,weatherlink.com 1.10,2013-01-22 03:31:00,
2013-01-21 20:46:00,43.3,30.0,30.28,SW,229,0.0,-999.0,59,-99.99,,,0.00,weatherlink.com 1.10,2013-01-22 03:46:00,
2013-01-21 21:01:00,43.7,29.0,30.29,SW,229,1.0,-999.0,57,-99.99,,,0.00,weatherlink.com 1.10,2013-01-22 04:01:00,
2013-01-21 21:16:00,44.0,29.0,30.29,SW,229,1.0,-999.0,57,-99.99,,,0.00,weatherlink.com 1.10,2013-01-22 04:16:00,
2013-01-21 21:31:00,43.7,29.0,30.29,SW,229,0.0,-999.0,56,-99.99,,,0.00,weatherlink.com 1.10,2013-01-22 04:31:00,
2013-01-21 21:46:00,43.7,28.0,30.29,SW,229,0.0,-999.0,54,-99.99,,,0.00,weatherlink.com 1.10,2013-01-22 04:46:00,
2013-01-21 22:01:00,43.4,28.0,30.30,SW,229,0.0,-999.0,54,-99.99,,,0.00,weatherlink.com 1.10,2013-01-22 05:01:00,
2013-01-21 22:16:00,43.7,27.0,30.30,SW,229,0.0,-999.0,52,-99.99,,,0.00,weatherlink.com 1.10,2013-01-22 05:16:00,
2013-01-21 22:31:00,43.8,27.0,30.31,SW,229,0.0,-999.0,52,-99.99,,,0.00,weatherlink.com 1.10,2013-01-22 05:31:00,
2013-01-21 22:46:00,43.2,26.0,30.31,SW,229,0.0,-999.0,52,-99.99,,,0.00,weatherlink.com 1.10,2013-01-22 05:46:00,
2013-01-21 23:01:00,42.6,26.0,30.31,SW,229,0.0,-999.0,53,-99.99,,,0.00,weatherlink.com 1.10,2013-01-22 06:01:00,
2013-01-21 23:16:00,42.7,26.0,30.31,SW,229,0.0,-999.0,53,-99.99,,,0.00,weatherlink.com 1.10,2013-01-22 06:16:00,
2013-01-21 23:33:00,41.9,26.0,30.31,SW,229,0.0,-999.0,53,-99.99,,,0.00,weatherlink.com 1.10,2013-01-22 06:33:00,
2013-01-21 23:46:00,41.8,26.0,30.31,SW,229,0.0,-999.0,53,-99.99,,,0.00,weatherlink.com 1.10,2013-01-22 06:46:00,